Weather History for CWEB - November, 2012

Change the Weather History Date:

Sunday, November 11, 2012

  Actual Average Record
Temperature  
Mean Temperature 44 °F -  
Max Temperature 48 °F - - ()
Min Temperature 39 °F - - ()
Degree Days  
Heating Degree Days 22    
Moisture  
Dew Point 40 °F    
Average Humidity 82    
Maximum Humidity 98    
Minimum Humidity 66    
Precipitation  
Precipitation 0.08 in - - ()
Sea Level Pressure  
Sea Level Pressure 29.99 in    
Wind  
Wind Speed 14 mph ()    
Max Wind Speed 22 mph    
Max Gust Speed 41 mph    
T = Trace of Precipitation, MM = Missing Value Source: Averaged Metar Reports

Daily Weather History Graph

Daily Weather History Graph

Search for Another Location

Airport or City:

Trip Planner

Search our weather history database for the weather conditions in past years. The results will help you decide how hot, cold, wet, or windy it might be!

Date:

Astronomy

Nov. 11, 2012 Rise Set
Actual Time 7:31 AM PST 4:48 PM PST
Civil Twilight 6:56 AM PST 5:23 PM PST
Nautical Twilight 6:18 AM PST 6:01 PM PST
Astronomical Twilight 5:40 AM PST 6:38 PM PST
Moon 4:42 AM PST (11/11) 3:24 PM PST (11/11)
Length of Visible Light 10h 26m
Length of Day
9h 16m
Waning Crescent, 6% of the Moon is Illuminated
Nov 11
Waning Crescent
Nov 13
New
Nov 20
First Quarter
Nov 28
Full
Dec 6
Last Quarter

Hourly Weather History & Observations

Time (PST) Temp. Windchill Dew Point Humidity Pressure Visibility Wind Dir Wind Speed Gust Speed Precip Events Conditions
12:00 AM 45.1 °F 38.4 °F 34.9 °F 67% 30.10 in - East 15.0 mph 26.5 mph N/A   Unknown
1:00 AM 44 °F - 37 °F 67% 30.10 in - East 20.7 mph - -  
1:00 AM 44.1 °F 35.7 °F 36.7 °F 75% 30.10 in - ESE 20.7 mph 32.2 mph N/A   Unknown
2:00 AM 44.6 °F 36.4 °F 36.7 °F 74% 30.09 in - East 20.7 mph 33.4 mph N/A   Unknown
3:00 AM 44.6 °F 36.4 °F 34.0 °F 66% 30.06 in - East 20.7 mph 41.4 mph N/A   Unknown
4:00 AM 43 °F - 36 °F 67% 30.06 in - East 21.9 mph - -  
4:00 AM 43.3 °F 34.5 °F 35.6 °F 74% 30.06 in - East 21.9 mph 34.5 mph N/A   Unknown
5:00 AM 42.1 °F 33.6 °F 36.1 °F 79% 30.05 in - East 18.4 mph 33.4 mph 0.01 in   Unknown
6:00 AM 41.5 °F 33.8 °F 36.9 °F 83% 30.04 in - East 15.0 mph 26.5 mph N/A   Unknown
7:00 AM 42 °F - 38 °F 80% 30.03 in - East 13.8 mph - -  
7:00 AM 42.3 °F 35.1 °F 37.9 °F 85% 30.03 in - East 13.8 mph 28.8 mph 0.01 in   Unknown
8:00 AM 43.7 °F 35.7 °F 38.5 °F 82% 30.01 in - East 18.4 mph 39.1 mph N/A   Unknown
9:00 AM 43.5 °F 36.1 °F 39.4 °F 85% 30.00 in - East 16.1 mph 31.1 mph 0.01 in   Unknown
10:00 AM 45 °F - 39 °F 74% 29.98 in - East 17.3 mph - -  
11:00 AM 46.0 °F 40.2 °F 39.9 °F 79% 29.98 in - East 12.7 mph 34.5 mph N/A   Unknown
12:00 PM 47.1 °F - 41.0 °F 79% 29.96 in - East 18.4 mph 29.9 mph N/A   Unknown
1:00 PM 47 °F - 41 °F 73% 29.96 in - East 18.4 mph - -  
1:00 PM 47.3 °F - 41.2 °F 79% 29.96 in - East 18.4 mph 31.1 mph N/A   Unknown
2:00 PM 47.7 °F - 42.1 °F 81% 29.94 in - East 15.0 mph 27.6 mph N/A   Unknown
3:00 PM 48.2 °F - 42.4 °F 80% 29.94 in - East 15.0 mph 29.9 mph N/A   Unknown
4:00 PM 49 °F - 43 °F 73% 29.94 in - East 13.8 mph - -  
4:00 PM 48.7 °F - 43.0 °F 80% 29.94 in - East 13.8 mph 27.6 mph N/A   Unknown
5:00 PM 46.8 °F - 44.2 °F 91% 29.94 in - East 9.2 mph 20.7 mph 0.04 in   Unknown
6:00 PM 46.2 °F 43.3 °F 44.8 °F 95% 29.94 in - NE 5.8 mph - 0.02 in   Unknown
7:00 PM 46 °F - 45 °F 95% 29.94 in - ENE 4.6 mph - -  
7:00 PM 46.0 °F 43.9 °F 45.0 °F 96% 29.94 in - ENE 4.6 mph - 0.01 in   Unknown
8:00 PM 45.7 °F 43.4 °F 44.8 °F 97% 29.93 in - ENE 4.6 mph - N/A   Unknown
9:00 PM 45.7 °F 42.7 °F 45.0 °F 97% 29.94 in - ENE 5.8 mph - N/A   Unknown
10:00 PM 46 °F - 45 °F 96% 29.96 in - ENE 1.2 mph - -  
10:00 PM 45.9 °F - 45.1 °F 97% 29.96 in - ENE 1.2 mph - N/A   Unknown
11:00 PM 45.7 °F 42.7 °F 45.1 °F 98% 29.96 in - WNW 5.8 mph - N/A   Unknown